Regional Weather Roundup
Issued by NWS

Home | Current Version | Previous Version | Graphics & Text | Print | Product List | Glossary On
Versions: 1 2 3 4 5 6 7 8 9 10 11 12 13 14 15 16 17 18 19 20 21 22 23 24 25 26 27 28 29 30 31 32 33 34 35 36 37 38 39 40 41 42 43 44 45 46 47 48 49 50
000
ASUS43 KBIS 221210
RWRND

NORTH DAKOTA REGIONAL WEATHER ROUNDUP
NATIONAL WEATHER SERVICE BISMARCK ND
700 AM CDT SUN APR 22 2018

NOTE: "FAIR" INDICATES FEW OR NO CLOUDS BELOW 12,000 FEET WITH NO
SIGNIFICANT WEATHER AND/OR OBSTRUCTIONS TO VISIBILITY.


NDZ001>003-009>011-017-221300-
NORTHWEST NORTH DAKOTA

CITY           SKY/WX    TMP DP  RH WIND       PRES   REMARKS
WILLISTON      MOCLDY    39  28  64 CALM      30.11R
6HR MIN TEMP:  36; 6HR MAX TEMP:  52;

MINOT          CLEAR     41  35  79 SW15      30.08R
MINOT AFB      CLEAR     39  36  88 SW13      30.06R
$$

NDZ018>021-031>035-040>046-221300-
SOUTHWEST NORTH DAKOTA

CITY           SKY/WX    TMP DP  RH WIND       PRES   REMARKS
BISMARCK       CLEAR     32  31  96 NW3       30.17F
6HR MIN TEMP:  31; 6HR MAX TEMP:  45;

DICKINSON      CLEAR     31  30  96 S8        30.09S
GARRISON         N/A     35  33  92 S7        30.11S
6HR MIN TEMP:  34; 6HR MAX TEMP:  41;

HETTINGER ARPT CLEAR     29  27  92 CALM      30.14S
$$

NDZ004>008-012>016-024-026-027-054-221300-
NORTHEAST NORTH DAKOTA

CITY           SKY/WX    TMP DP  RH WIND       PRES   REMARKS
GRAND FORKS    MOCLDY    34  34 100 S8        30.22R
GRND FRKS AFB  FAIR      37  34  89 SW6       30.21R
DEVILS LAKE    FAIR      38  31  76 S13       30.16F
$$

NDZ022-023-025-028>030-036>039-047>053-221300-
SOUTHEAST NORTH DAKOTA

CITY           SKY/WX    TMP DP  RH WIND       PRES   REMARKS
FARGO          FAIR      37  33  85 S10       30.26F
6HR MIN TEMP:  35; 6HR MAX TEMP:  46;

JAMESTOWN      CLOUDY    35  32  88 S12       30.20R
$$





USA.gov is the U.S. government's official web portal to all federal, state and local government web resources and services.